Regional Weather Roundup
Issued by NWS

Home | Current Version | Previous Version | Text Only | Print | Product List | Glossary Off
Versions: 1 2 3 4 5 6 7 8 9 10 11 12 13 14 15 16 17 18 19 20 21 22 23 24 25 26 27 28 29 30 31 32 33 34 35 36 37 38 39 40 41 42 43 44 45 46 47 48 49 50

000
ASUS45 KABQ 232310
RWRNM
NEW MEXICO REGIONAL WEATHER ROUNDUP
NATIONAL WEATHER SERVICE ALBUQUERQUE NM
400 PM MST TUE JAN 23 2018

NOTE: "FAIR" MEANS FEW OR NO CLOUDS BELOW 12,000 FEET AGL WITH NO
       SIGNIFICANT WEATHER OR OBSTRUCTIONS TO VISION.

      THIS PRODUCT IS RELEASED AS TWO VERSIONS.  ONE VERSION NEAR
      THE TOP OF THE HOUR CONTAINING PRELIMINARY DATA FROM ALBUQUERQUE
      AND OTHER STATIONS.  A FINAL VERSION WITH ADDITIONAL DATA IS
      ISSUED ABOUT 10 MINUTES AFTER THE HOUR.

NMZ501-503-504-510>518-240000-
NORTHWEST PLATEAU/NORTHCENTRAL MOUNTAINS

CITY           SKY/WX    TMP DP  RH WIND       PRES   REMARKS
FARMINGTON     FAIR      37  15  40 CALM      30.27R
LOS ALAMOS     FAIR      38   4  24 CALM      30.25R
SANTA FE       FAIR      43   8  23 N6        30.23R
TAOS           FAIR      38   9  30 W3        30.26R
ANGEL FIRE     FAIR      33   8  35 W7        30.22R WCI  27

$$
NMZ402-403-502-505>509-240000-
WESTCENTRAL MOUNTAINS/SOUTHWEST MOUNTAINS

CITY           SKY/WX    TMP DP  RH WIND       PRES   REMARKS
GALLUP         FAIR      42  13  30 NE3       30.27R
GRANTS         FAIR      42   6  22 NW12G21   30.27S
SILVER CITY    FAIR      53  -5   9 SE12      30.18R

$$
NMZ407-409-411-412-240000-
SOUTHERN DESERTS

CITY           SKY/WX    TMP DP  RH WIND       PRES   REMARKS
DEMING         FAIR      56  -3   9 NE14      30.18S
LAS CRUCES     FAIR      55  -1  10 NE5       30.20R
HOLLOMAN AFB   FAIR      53  -2  10 SW5       30.22R
ALAMOGORDO     FAIR      54   0  11 W10       30.21R
T OR C         FAIR      53   0  11 N12       30.21R

$$
NMZ519>523-240000-
CENTRAL VALLEYS/CENTRAL HIGHLANDS

CITY           SKY/WX    TMP DP  RH WIND       PRES   REMARKS
ALBUQUERQUE    FAIR      48  11  22 NW5       30.24S
DOUBLE EAGLE   SUNNY     45  10  24 NW8       30.25S
MORIARTY ARPT  FAIR      47   9  21 NW6       30.24R
CLINES CORNERS FAIR      42   4  20 NW12      30.23R
BELEN          FAIR      46   7  20 NE6       30.25S
SOCORRO        FAIR      48   2  14 N12G18    30.24S

$$
NMZ524>526-539-540-240000-
SOUTHCENTRAL MOUNTAINS

CITY           SKY/WX    TMP DP  RH WIND       PRES   REMARKS
RUIDOSO        FAIR      46  -8  10 NW7       30.23R

$$
NMZ527>531-240000-
NORTHEAST HIGHLANDS/NORTHEAST PLAINS

CITY           SKY/WX    TMP DP  RH WIND       PRES   REMARKS
LAS VEGAS      FAIR      40   1  19 S9        30.22R WCI  34
RATON          FAIR      43   2  18 S15       30.20R
CLAYTON        FAIR      42   9  25 SE13      30.25R

$$
NMZ532>537-240000-
EASTCENTRAL PLAINS

CITY           SKY/WX    TMP DP  RH WIND       PRES   REMARKS
SANTA ROSA     FAIR      46   1  15 NE9       30.22R
TUCUMCARI      FAIR      50  -1  12 NE7       30.22R
CANNON AFB     FAIR      55  -8   7 W7        30.22R
CLOVIS AIRPORT FAIR      55  -7   7 W7        30.22R

$$
NMZ028-029-538-240000-
SOUTHEAST PLAINS

CITY           SKY/WX    TMP DP  RH WIND       PRES   REMARKS
ROSWELL        FAIR      56   3  11 S7        30.20R
ARTESIA        FAIR      55   3  12 S7        30.21R
CARLSBAD       FAIR      56   2  11 E8        30.19R
HOBBS          SUNNY     55  -6   8 S7        30.22R


$$



USA.gov is the U.S. government's official web portal to all federal, state and local government web resources and services.